Tracking 17844 objects as of 25-August-2016
HD Live streaming from Space Station
objects crossing your sky now

AMC-10 (GE-10)

Track AMC-10 (GE-10) now!
AMC-10 (GE-10) is classified as:


NORAD ID: 28154
Int'l Code: 2004-003A
Perigee: 35,784.3 km
Apogee: 35,803.8 km
Inclination: 0.1 °
Period: 1,436.1 minutes
Semi major axis: 42165 km
RCS: 21.2115 m2 (large)
Launch date: February 5, 2004
Source: SOCIETE EUROPEENNE DES SATELLITES (SES)
Launch site: AIR FORCE EASTERN TEST RANGE (AFETR)

24 C-band transponders.
Your satellite tracking list
Your tracking list is empty





NASA's NSSDC Master Catalog

Two Line Element Set (TLE):
1 28154U 04003A   16237.44886133  .00000064  00000-0  00000+0 0  9992
2 28154   0.0595 286.5781 0002305 201.7871 231.3670  1.00270699 46000
Source of the keplerian elements: AFSPC

N2YO: 640